Location: Boone Canyon
(38.3180°N, 119.2504°W)
Time: 17:23:42
(UTC+00:00)

Cosmos 1570 Rocket - Pass Details

Date: 18 September 2020
Orbit: 763 x 788 km, 74.1° (Epoch: 19 October)

Event Time Altitude Azimuth Distance (km) Brightness Sun altitude
Rises 12:54:06 0° 195° (SSW) 3,236 7.0 -10.1°
Reaches altitude 10° 12:56:27 10° 195° (SSW) 2,317 6.3 -9.7°
Maximum altitude 13:01:44 86° 107° (ESE) 788 4.1 -8.6°
Drops below altitude 10° 13:07:05 10° 19° (NNE) 2,348 6.9 -7.6°
Sets 13:09:29 0° 19° (NNE) 3,283 7.7 -7.1°
